Regional Weather Roundup
Issued by NWS

Home | Current Version | Previous Version | Text Only | Print | Product List | Glossary Off
Versions: 1 2 3 4 5 6 7 8 9 10 11 12 13 14 15 16 17 18 19 20 21 22 23 24 25 26 27 28 29 30 31 32 33 34 35 36 37 38 39 40 41 42 43 44 45 46 47 48 49 50

000
ASUS43 KIND 291659
RWRIN

WEATHER ROUNDUP FOR INDIANA
NATIONAL WEATHER SERVICE INDIANAPOLIS IN
100 PM EDT MON JUN 29 2015

NOTE: "FAIR" INDICATES FEW OR NO CLOUDS BELOW 12,000 FEET WITH NO
SIGNIFICANT WEATHER AND/OR OBSTRUCTIONS TO VISIBILITY.

* - STATION DOES NOT REPORT WEATHER SUCH AS PRECIPITATION OR FOG.

+ - STATION NOT QUALITY CONTROLLED BY THE NATIONAL WEATHER SERVICE.
    USE DATA WITH CAUTION...ESPECIALLY DEWPOINT AND RELATIVE
    HUMIDITY OBSERVATIONS.

INZ001>003-010>013-019-020-291800-
NORTHWEST INDIANA

CITY           SKY/WX    TMP DP  RH WIND       PRES   REMARKS
GARY /AIRPORT/ PTSUNNY  N/A N/A N/A CALM      29.82S
RENSSELAER +   CLOUDY    70  64  83 CALM      29.82S

$$

LMZ046-743>745-291800-
SOUTHERN LAKE MICHIGAN

STATION/POSITION TIME  TEMP    WIND        PRES    WAVE
                       AIR SEA DIR/SP/G            HT
                 (UTC) (F)     (DEG/KT/KT) (MB)    (FT)
BURNS HARBOR     1600   66      20/  6/ 10 1010.5S
MICHIGAN CITY    1600   65     110/  6/  7   N/A
5NW MICH CITY    1600   65 64  140/  4/  6   N/A     0

$$

INZ004-005-014>016-021>024-291800-
NORTH CENTRAL INDIANA

CITY           SKY/WX    TMP DP  RH WIND       PRES   REMARKS
ELKHART        CLOUDY    66  59  77 SE12      29.85R
GOSHEN         CLOUDY    67  60  78 SE9       29.85R
SOUTH BEND     RAIN      66  63  90 SE8       29.85R FOG

$$

INZ006>009-017-018-025>027-291800-
NORTHEAST INDIANA

CITY           SKY/WX    TMP DP  RH WIND       PRES   REMARKS
ANGOLA *+      MOSUNNY   70  59  68 SE13      29.86S
FORT WAYNE     CLOUDY    63  59  87 E10       29.86R

$$

INZ028-029-035-036-043>045-051>053-291800-
WEST CENTRAL INDIANA

CITY           SKY/WX    TMP DP  RH WIND       PRES   REMARKS
CRAWFORDSVL +  CLOUDY    65  62  89 CALM      29.82R
GREENCASTLE +  CLOUDY    64  63  94 CALM      29.82R FOG
LAFAYETTE      PTSUNNY   71  63  75 E3        29.80R
TERRE HAUTE    CLOUDY    74  67  78 NW8       29.80S

$$

INZ030>032-037>040-046>048-054>057-064-065-291800-
CENTRAL INDIANA

CITY           SKY/WX    TMP DP  RH WIND       PRES   REMARKS
ANDERSON       CLOUDY    68  57  68 SE6       29.83S
COLUMBUS       CLOUDY    68  64  88 SW3       29.81R FOG
INDIANAPOLIS   DRIZZLE   68  64  87 CALM      29.80S FOG
-EAGLE CREEK   CLOUDY    66  63  90 CALM      29.81R
KOKOMO *+      CLOUDY    68  61  77 SE7       29.81S
MT COMFORT *+  CLOUDY    66 N/A N/A S3        29.82S
SHELBYVILLE    CLOUDY    69  65  86 SW3       29.80S FOG

$$

INZ033-034-041-042-049-050-058-059-291800-
EAST CENTRAL INDIANA

CITY           SKY/WX    TMP DP  RH WIND       PRES   REMARKS
MUNCIE         CLOUDY    67  61  81 SE9       29.82S

$$

INZ060-061-067>069-081>083-085>088-291800-
SOUTHWEST INDIANA

CITY           SKY/WX    TMP DP  RH WIND       PRES   REMARKS
EVANSVILLE     PTSUNNY   81  68  64 W10       29.83S
HUNTINGBURG *+ PTSUNNY   79  68  69 W15       29.83S

$$

INZ062-063-066-070>080-084-089>092-291800-
SOUTH CENTRAL AND SOUTHEAST INDIANA

CITY           SKY/WX    TMP DP  RH WIND       PRES   REMARKS
BLOOMINGTON    PTSUNNY   74  67  78 W9        29.81R
MADISON *+     CLOUDY    73  64  73 SW8       29.84F

$$




USA.gov is the U.S. government's official web portal to all federal, state and local government web resources and services.